Location: Powder Track
(41.8531°N, 72.3584°W)
Time: 23:13:04
(UTC+00:00)

X-37B - Pass Details

Date: 24 June 2021
Orbit: 383 x 392 km, 45.0° (Epoch: 01 July)

Event Time Altitude Azimuth Distance (km) Brightness Sun altitude
Rises 02:40:18 0° 254° (WSW) 2,250 4.7 -18.0°
Reaches altitude 10° 02:42:22 10° 256° (WSW) 1,399 3.6 -18.2°
Maximum altitude 02:45:30 76° 342° (NNW) 398 0.6 -18.5°
Enters shadow 02:47:05 27° 65° (ENE) 781 2.0 -18.6°
